COSMOS 2135

导读

COSMOS 2135是苏联解体后独联体(CIS)发射的"宇宙"系列卫星,于1991年2月26日8时升空。作为冷战末期苏联航天项目延续,该卫星延续"宇宙"系列保密属性,大概率承担军事侦察、空间物理探测或技术试验任务,是独联体时期承接苏联航天遗产的典型产物,也体现了后苏联时代航天活动的过渡特征,至今在空间目标监测目录中仍有轨道记录。

基本信息
目录编号:
21130
目录名称:
COSMOS 2135
国际标识:
1991-013A
轨道中心:
EARTH
卫星名称:
COSMOS 2135
卫星全名:
--
卫星状态:
在轨 (已飞行12899 天)
发射日期:
1991-02-26 UTC
国别 :
俄罗斯(独联体) (CIS)
星等 :
--
轨道信息
数据来源 国际轨道数据 AOE轨道数据
星历时间 2026-06-20T16:24:28+0800
21小时前
查看轨道信息
2026-06-18T00:00:00+0800
3天前
查看轨道信息
半长轴 7346.275km 7346.273km
偏心率 0.00655 0.0065228
轨道倾角 82.827° 82.828°
近地点辐角 191.983° 199.769°
升交点赤经 214.258° 216.292°
平近点角 167.977° 166.870°
近地点 920.019km 920.217km
远地点 1016.257km 1016.055km
周期 104.438分钟 104.438分钟
每日圈数 13.788025 13.788029
详细信息
使用方式:
暂无
2D轨道图
3D轨道图
轨道高度分析图
轨道倾角分析图
轨道综合分析图
查看轨道综合分析图